Date String (YYYY-MM-DD hh:mm:ss) UTC,Instrument flags,Ambient pressure (hPa),Sample flow (lpm),Bypass flow (lpm),Sample temperature (°C),Ambient temperature (°C),ASC tube jacket temperature (°C),LED temperature (°C),Box temperature (°C),Sample RH (%),Span deviation,Mass concentration (μg/m³),Mass concentration (μg/m³),Mass concentration (μg/m³)
DateTimeUTC,F1_M11,P_M11,Q1_M11,Q2_M11,T1_M11,T2_M11,T3_M11,T4_M11,T5_M11,U1_M11,ZSPAN_M11,X0_M11,X2_M11,X1_M11
2022-05-19 13:00:00,,0816.4,5.00,0.00,30.0,28.7,00.0,38.9,31.8,08.7,0000.0,0009.16,0003.38,0001.89
2022-05-19 13:01:00,,0816.4,4.99,0.00,30.0,28.7,00.0,38.9,31.8,09.0,0000.0,0009.58,0003.39,0001.89
2022-05-19 13:02:00,,0816.4,5.00,0.00,30.0,28.7,00.0,38.9,31.7,09.1,0000.0,0009.68,0003.37,0001.88
2022-05-19 13:03:00,,0816.4,5.01,0.00,30.0,28.7,00.0,38.9,31.7,09.4,0000.0,0009.79,0003.42,0001.89
2022-05-19 13:04:00,,0816.5,5.01,0.00,30.0,28.8,00.0,38.9,31.7,09.5,0000.0,0009.73,0003.39,0001.88
2022-05-19 13:05:00,,0816.4,4.99,0.00,30.0,28.8,00.0,38.9,31.8,09.3,0000.0,0009.39,0003.35,0001.86
2022-05-19 13:06:00,,0816.4,5.00,0.00,30.0,28.7,00.0,38.9,31.8,09.0,0000.0,0008.11,0003.31,0001.84
2022-05-19 13:07:00,,0816.5,5.00,0.00,30.0,28.8,00.0,38.9,31.7,09.6,0000.0,0007.94,0003.29,0001.82
2022-05-19 13:08:00,,0816.4,5.00,0.00,30.0,28.8,00.0,38.9,31.7,09.5,0000.0,0007.92,0003.30,0001.84
2022-05-19 13:09:00,,0816.4,5.00,0.00,30.0,28.8,00.0,38.9,31.7,09.0,0000.0,0008.57,0003.31,0001.85
2022-05-19 13:10:00,,0816.4,5.01,0.00,30.0,28.8,00.0,38.9,31.7,08.7,0000.0,0008.64,0003.30,0001.83
2022-05-19 13:11:00,,0816.4,5.00,0.00,30.0,28.8,00.0,38.9,31.7,08.8,0000.0,0008.60,0003.28,0001.82
2022-05-19 13:12:00,,0816.4,4.99,0.00,30.0,28.8,00.0,38.9,31.8,08.8,0000.0,0008.55,0003.25,0001.82
2022-05-19 13:13:00,,0816.5,5.00,0.00,30.0,28.8,00.0,38.9,31.8,08.8,0000.0,0008.44,0003.23,0001.82
2022-05-19 13:14:00,,0816.5,5.01,0.00,30.0,28.8,00.0,38.9,31.8,09.0,0000.0,0008.28,0003.18,0001.81
2022-05-19 13:15:00,,0816.6,4.98,0.00,30.0,28.8,00.0,38.9,31.7,09.1,0000.0,0008.31,0003.18,0001.81
2022-05-19 13:16:00,,0816.5,4.99,0.00,30.0,28.8,00.0,38.9,31.8,09.1,0000.0,0008.49,0003.23,0001.82
2022-05-19 13:17:00,,0816.4,5.01,0.00,30.0,28.8,00.0,38.9,31.8,09.3,0000.0,0009.52,0003.38,0001.84
2022-05-19 13:18:00,,0816.4,5.01,0.00,30.0,28.8,00.0,38.9,31.8,09.2,0000.0,0009.84,0003.45,0001.86
2022-05-19 13:19:00,,0816.4,4.99,0.00,30.0,28.8,00.0,38.9,31.8,08.7,0000.0,0009.86,0003.46,0001.86
2022-05-19 13:20:00,,0816.4,4.99,0.00,30.0,28.8,00.0,38.9,31.8,08.8,0000.0,0009.56,0003.46,0001.85
2022-05-19 13:21:00,,0816.3,4.99,0.00,30.0,28.8,00.0,38.9,31.8,08.8,0000.0,0009.64,0003.50,0001.86
2022-05-19 13:22:00,,0816.4,5.00,0.00,30.0,28.8,00.0,38.9,31.8,08.6,0000.0,0009.73,0003.55,0001.86
2022-05-19 13:23:00,,0816.3,4.99,0.00,30.0,28.8,00.0,38.9,31.8,08.9,0000.0,0009.92,0003.61,0001.85
2022-05-19 13:24:00,,0816.4,5.01,0.00,30.0,28.8,00.0,38.9,31.7,08.7,0000.0,0010.70,0003.61,0001.85
2022-05-19 13:25:00,,0816.4,5.00,0.00,30.0,28.8,00.0,38.9,31.7,08.6,0000.0,0010.89,0003.61,0001.86
2022-05-19 13:26:00,,0816.6,4.99,0.00,30.0,28.8,00.0,38.9,31.7,08.9,0000.0,0010.90,0003.61,0001.86
2022-05-19 13:27:00,,0816.4,5.01,0.00,30.0,28.8,00.0,38.9,31.8,09.0,0000.0,0010.85,0003.55,0001.85
2022-05-19 13:28:00,,0816.4,5.00,0.00,30.0,28.8,00.0,38.9,31.8,08.8,0000.0,0009.91,0003.43,0001.85
2022-05-19 13:29:00,,0816.3,5.00,0.00,30.0,28.8,00.0,38.9,31.8,08.7,0000.0,0009.68,0003.39,0001.83
2022-05-19 13:30:00,,0816.3,4.99,0.00,30.0,28.8,00.0,38.9,31.8,08.5,0000.0,0009.88,0003.45,0001.83
2022-05-19 13:31:00,,0816.3,5.00,0.00,30.0,28.8,00.0,38.9,31.8,08.6,0000.0,0009.71,0003.49,0001.84
2022-05-19 13:32:00,,0816.3,5.01,0.00,30.0,28.8,00.0,38.9,31.8,08.9,0000.0,0009.52,0003.44,0001.81
2022-05-19 13:33:00,,0816.3,4.98,0.00,30.0,28.8,00.0,38.9,31.8,08.8,0000.0,0009.85,0003.39,0001.80
2022-05-19 13:34:00,,0816.3,5.00,0.00,30.0,28.8,00.0,38.9,31.8,08.7,0000.0,0009.71,0003.32,0001.80
2022-05-19 13:35:00,,0816.3,5.00,0.00,30.0,28.8,00.0,38.9,31.8,08.6,0000.0,0008.71,0003.31,0001.81
2022-05-19 13:36:00,,0816.3,5.01,0.00,30.0,28.8,00.0,38.9,31.8,08.6,0000.0,0008.96,0003.34,0001.81
2022-05-19 13:37:00,,0816.3,5.00,0.00,30.0,28.8,00.0,38.9,31.8,08.9,0000.0,0008.91,0003.36,0001.80
2022-05-19 13:38:00,,0816.1,5.00,0.00,30.0,28.8,00.0,38.9,31.8,08.6,0000.0,0008.78,0003.37,0001.81
2022-05-19 13:39:00,,0816.1,4.99,0.00,30.0,28.8,00.0,38.9,31.8,08.5,0000.0,0008.69,0003.35,0001.80
2022-05-19 13:40:00,,0816.2,5.00,0.00,30.0,28.8,00.0,38.9,31.8,08.6,0000.0,0008.75,0003.36,0001.80
2022-05-19 13:41:00,,0816.4,5.00,0.00,30.0,28.8,00.0,38.9,31.8,08.7,0000.0,0008.63,0003.29,0001.81
2022-05-19 13:42:00,,0816.2,5.01,0.00,30.0,28.8,00.0,38.9,31.8,08.9,0000.0,0008.52,0003.24,0001.80
2022-05-19 13:43:00,,0816.0,5.00,0.00,30.0,28.9,00.0,38.9,31.8,08.9,0000.0,0009.04,0003.26,0001.82
2022-05-19 13:44:00,,0816.0,5.00,0.00,30.0,28.9,00.0,38.9,31.8,08.9,0000.0,0008.74,0003.28,0001.84
2022-05-19 13:45:00,,0816.1,5.00,0.00,30.0,28.9,00.0,38.9,31.9,09.0,0000.0,0008.55,0003.29,0001.85
2022-05-19 13:46:00,,0816.0,5.00,0.00,30.0,28.9,00.0,38.9,31.9,08.8,0000.0,0008.55,0003.30,0001.84
2022-05-19 13:47:00,,0816.0,5.00,0.00,30.0,28.9,00.0,38.9,31.9,08.8,0000.0,0008.08,0003.34,0001.85
2022-05-19 13:48:00,,0816.0,4.98,0.00,30.1,28.9,00.0,38.9,31.9,08.6,0000.0,0008.13,0003.34,0001.85
2022-05-19 13:49:00,,0816.0,5.01,0.00,30.1,28.9,00.0,38.9,31.9,08.9,0000.0,0008.16,0003.35,0001.85
2022-05-19 13:50:00,,0816.1,5.00,0.00,30.1,28.9,00.0,39.0,31.9,09.1,0000.0,0008.11,0003.35,0001.84
2022-05-19 13:51:00,,0816.0,4.99,0.00,30.1,28.9,00.0,39.0,31.9,09.2,0000.0,0008.12,0003.38,0001.84
2022-05-19 13:52:00,,0816.1,4.99,0.00,30.1,28.9,00.0,39.0,31.9,09.6,0000.0,0008.05,0003.39,0001.85
2022-05-19 13:53:00,,0816.1,5.00,0.00,30.1,28.9,00.0,39.0,31.9,09.4,0000.0,0008.08,0003.40,0001.85
2022-05-19 13:54:00,,0816.2,4.99,0.00,30.1,29.0,00.0,39.0,31.9,09.9,0000.0,0007.83,0003.40,0001.84
2022-05-19 13:55:00,,0816.2,5.00,0.00,30.1,29.0,00.0,39.0,31.9,10.2,0000.0,0007.83,0003.44,0001.84
2022-05-19 13:56:00,,0816.1,5.00,0.00,30.1,29.0,00.0,39.0,31.9,09.6,0000.0,0007.90,0003.45,0001.85
2022-05-19 13:57:00,,0816.0,5.00,0.00,30.1,29.0,00.0,39.0,31.9,09.5,0000.0,0007.85,0003.43,0001.86
2022-05-19 13:58:00,,0815.8,5.00,0.00,30.1,29.0,00.0,39.0,31.9,09.4,0000.0,0007.95,0003.36,0001.84
2022-05-19 13:59:00,,0815.9,5.00,0.00,30.1,29.0,00.0,39.0,31.9,09.7,0000.0,0008.01,0003.37,0001.83
